404  
ASUS41 KBGM 111410  
RWRBGM  
 
REGIONAL WEATHER ROUNDUP  
NATIONAL WEATHER SERVICE BINGHAMTON NY  
1000 AM EDT THU AUG 11 2022  
 
NOTE: "FAIR" INDICATES FEW OR NO CLOUDS BELOW 12,000 FEET WITH NO  
SIGNIFICANT WEATHER AND/OR S TO VISIBILITY
.  
 
* = STATION(S) THAT DOES NOT REPORT PRECIPITATION, SUCH AS RAIN,  
SNOW, ETC, ALSO NO THUNDER OR FOG.
 
 
NYZ009-015>018-022>025-036-037-044>046-055>057-062-111500   
..CENTRAL NEW YORK
 
 
 
CITY SKY/WX TMP DP RH WIND PRES REMARKS
 
BINGHAMTON MOSUNNY 69 58 67 W7 29.99F  
CORTLAND FAIR 70 61 73 W3 29.97F  
DANSVILLE MOSUNNY 76 61 59 NW9 29.98F  
ELMIRA MOSUNNY 72 62 71 SW10 29.97F  
ITHACA MOSUNNY 73 62 68 SW6 29.98F  
HAMILTON MOSUNNY 72 61 68 CALM 29.97S  
HORNELL SUNNY 73 61 64 NW9 30.02F  
MONTICELLO SUNNY 73 59 61 NW7 29.99F  
NORWICH MOSUNNY 70 63 78 S5 29.99F  
ONEONTA SUNNY 66 59 77 W3 29.99S  
PENN YAN CLOUDY 73 62 68 VRB3 29.98R  
ROME MOSUNNY 70 61 73 VRB3 29.95F  
SENECA FALLS PTSUNNY 72 61 68 NW9 29.96S  
SIDNEY SUNNY 68 63 83 CALM 29.98F  
SKANEATELES PTSUNNY 70 66 88 SW8 29.97R  
SYRACUSE PTSUNNY 73 61 65 W7 29.94F  

 
 
PAZ038>040-043-044-047-048-072-111500   
..NORTHEAST PENNSYLVANIA
 
 
 
CITY SKY/WX TMP DP RH WIND PRES REMARKS
 
HAZLETON SUNNY 72 61 68 NW5 30.04F  
SCRANTON MOSUNNY 74 59 59 CALM 30.00S  

 

 
KEY  
WCI = WIND CHILL INDEX  
VSB = VISIBILITY  
HX = HEAT INDEX  

 
 
 
CLICK HERE TO GO TO PREVIOUS BULLETINS.

The Nexlab NY Page
The Nexlab PA Page Main Text Page